[[{"header":{"parameterUnit":"m.s-1","parameterCategory":1,"la1":30.2991,"la2":30.254,"lo1":-89.0895,"lo2":-89.0444,"dy":0.0017,"dx":0.0017,"nx":28,"ny":28,"refTime":"2023-03-16T21:00:00:Z","depth":0,"parameterNumber":2,"parameterNumberName":"U-component_of_WINDS"},"data":[0,0,0,0,0,0,0,0,0,0,0,0,0,0,0,0,0,0,0,0,0,0,0,0,0,0,0,0,0,0,0,0,0,0,0,0,0,0,0,0,0,0,0,0,0,0,0,0,0,0,0,0,0,0,0,0,0,0,-0.7251,-0.7251,0,-0.7296,-0.7297,-0.7297,-0.7264,-0.7262,-0.7261,-0.726,-0.7309,-0.7311,-0.7314,0,0,0,0,0,0,0,0,0,0,0,0,0,-0.7136,-0.7138,-0.725,-0.7251,-0.7252,-0.7296,-0.7297,-0.7297,-0.7264,-0.7262,-0.7261,-0.7259,-0.7308,-0.7311,-0.7314,0,0,0,0,0,0,0,0,0,0,0,0,0,-0.7184,-0.7139,-0.725,-0.724,-0.724,-0.7296,-0.7297,-0.7297,-0.7265,-0.7262,-0.726,-0.7258,-0.7307,-0.731,-0.7314,-0.7383,0,0,-0.7327,-0.7328,0,0,0,0,0,0,0,0,-0.7181,-0.7188,-0.7241,-0.7241,-0.7241,-0.7272,-0.7274,-0.7326,-0.7265,-0.7255,-0.726,-0.7257,-0.7298,-0.7303,-0.7316,-0.7386,-0.7388,-0.7327,-0.7329,-0.7331,-0.7332,0,0,0,0,0,0,0,-0.7178,-0.7186,-0.7269,-0.7242,-0.7242,-0.7234,-0.7238,-0.7284,-0.7289,-0.7256,-0.7254,-0.7259,-0.7298,-0.7313,-0.7317,-0.7388,-0.7327,-0.733,-0.7333,-0.7335,-0.7516,-0.7518,0,0,0,0,0,0,-0.7176,-0.7184,-0.7267,-0.727,-0.7205,-0.7238,-0.7243,-0.7264,-0.7288,-0.729,-0.7261,-0.7258,-0.7307,-0.7313,-0.7319,-0.7401,-0.7331,-0.7335,-0.7337,-0.7514,-0.7517,-0.7519,0,0,0,0,0,0,-0.7173,-0.7183,-0.7265,-0.7226,-0.7236,-0.7242,-0.7267,-0.7266,-0.7281,-0.7292,-0.7293,-0.7275,-0.7305,-0.7313,-0.7367,-0.7402,-0.7337,-0.734,-0.7511,-0.7514,-0.7518,-0.7567,0,0,0,0,0,0,-0.717,-0.7183,-0.7209,-0.7227,-0.7238,-0.7313,-0.7269,-0.7269,-0.7288,-0.7284,-0.7306,-0.7307,-0.7304,-0.7361,-0.7371,-0.7407,-0.7343,-0.7508,-0.7512,-0.7517,-0.7562,-0.7571,-0.758,0,0,0,0,0,-0.7166,-0.7221,-0.721,-0.7221,-0.7271,-0.7315,-0.7321,-0.7316,-0.7291,-0.7317,-0.7324,-0.7306,-0.7396,-0.7367,-0.7378,-0.7415,-0.7505,-0.7511,-0.7516,-0.7558,-0.757,-0.7579,0,0,0,0,0,0,-0.7208,-0.7224,-0.7212,-0.7274,-0.7293,-0.7309,-0.7343,-0.7329,-0.7356,-0.7351,-0.7344,-0.7349,-0.7406,-0.7416,-0.7383,-0.7483,-0.7447,-0.7455,-0.7475,-0.7486,-0.7495,-0.7492,-0.7347,0,0,0,0,0,-0.7224,-0.7258,-0.727,-0.7324,-0.7334,-0.7337,-0.7356,-0.735,-0.737,-0.7378,-0.7389,-0.741,-0.7442,-0.7464,-0.7495,-0.7562,-0.7567,-0.7593,-0.7602,-0.7609,-0.7617,-0.7653,-0.7665,-0.7537,-0.7537,-0.7537,0,0,-0.7259,-0.7272,-0.7294,-0.7333,-0.7347,-0.7383,-0.7344,-0.7384,-0.7411,-0.7384,-0.7436,-0.7445,-0.7467,-0.7528,-0.7555,-0.7538,-0.7653,-0.7616,-0.7622,-0.7625,-0.766,-0.7672,-0.7683,-0.7541,-0.754,-0.7539,0,0,-0.7341,-0.7353,-0.74,-0.7415,-0.7436,-0.7437,-0.7448,-0.7466,-0.747,-0.7522,-0.7503,-0.7534,-0.7591,-0.7608,-0.7624,-0.771,-0.7695,-0.772,-0.7767,-0.7802,-0.7813,-0.7821,-0.7853,-0.7864,-0.7727,-0.7727,-0.7727,0,-0.7382,-0.7435,-0.7426,-0.7467,-0.7485,-0.7461,-0.7509,-0.7523,-0.7554,-0.7567,-0.7547,-0.7617,-0.763,-0.7695,-0.7716,-0.7729,-0.7742,-0.7719,-0.7812,-0.7821,-0.7829,-0.7859,-0.7871,-0.773,-0.773,-0.773,-0.7729,0,-0.7484,-0.7521,-0.7556,-0.7585,-0.7607,-0.7651,-0.7649,-0.7672,-0.7663,-0.7667,-0.7719,-0.7734,-0.7767,-0.7782,-0.7774,-0.7845,-0.7834,-0.7812,-0.7777,-0.7844,-0.7872,-0.7884,-0.7734,-0.7733,-0.7732,-0.7732,0,0,-0.7596,-0.7618,-0.7632,-0.7645,-0.7666,-0.7694,-0.7737,-0.7768,-0.7789,-0.781,-0.7846,-0.7894,-0.7874,-0.7892,-0.7886,-0.7917,-0.7985,-0.7892,-0.7892,-0.7909,-0.8064,-0.8081,-0.8094,-0.7974,-0.7976,-0.7977,-0.8062,0,-0.7679,-0.7753,-0.7746,-0.7817,-0.7851,-0.7828,-0.7865,-0.7882,-0.7886,-0.7915,-0.7919,-0.7953,-0.7924,-0.7935,-0.7964,-0.797,-0.8016,-0.7964,-0.8008,-0.801,-0.8005,-0.8109,-0.8127,-0.8207,-0.8073,-0.8075,-0.8076,0,-0.7788,-0.7812,-0.7886,-0.7901,-0.7915,-0.7949,-0.7977,-0.8005,-0.8024,-0.8024,-0.8043,-0.8032,-0.8074,-0.8036,-0.8095,-0.806,-0.8077,-0.8083,-0.8086,-0.8091,-0.8049,-0.8119,-0.8232,-0.8245,-0.8094,-0.8092,-0.8091,0,-0.7863,-0.7914,-0.7965,-0.7977,-0.7996,-0.802,-0.8029,-0.8045,-0.8064,-0.8089,-0.8101,-0.813,-0.8147,-0.817,-0.8166,-0.8138,-0.8227,-0.8188,-0.8229,-0.823,-0.8251,-0.825,-0.837,-0.8259,-0.8259,-0.8259,-0.8259,0,-0.7959,-0.8005,-0.7999,-0.8031,-0.8082,-0.8072,-0.8123,-0.8129,-0.8144,-0.8176,-0.8157,-0.8188,-0.8181,-0.8212,-0.8209,-0.8259,-0.8266,-0.8268,-0.8267,-0.8271,-0.8271,-0.8283,-0.8278,-0.8262,-0.8261,-0.8261,-0.826,0,-0.8053,-0.8051,-0.8104,-0.8117,-0.8121,-0.8159,-0.817,-0.8199,-0.82,-0.8242,-0.8251,-0.8253,-0.8288,-0.8286,-0.8325,-0.8323,-0.8385,-0.8377,-0.8379,-0.8378,-0.842,-0.8416,-0.8554,-0.8572,-0.8448,-0.8449,-0.845,0,-0.8115,-0.815,-0.8166,-0.8186,-0.8196,-0.8228,-0.8248,-0.8239,-0.826,-0.8283,-0.831,-0.8343,-0.8369,-0.8426,-0.8431,-0.8461,-0.8455,-0.85,-0.8459,-0.8461,-0.8457,-0.8455,-0.8459,-0.8509,-0.8511,-0.8512,-0.8513,0,-0.8225,-0.8222,-0.825,-0.8278,-0.8301,-0.8322,-0.8342,-0.8359,-0.8353,-0.8377,-0.8412,-0.8432,-0.8472,-0.8505,-0.8533,-0.8543,-0.8527,-0.8525,-0.8537,-0.8542,-0.8542,-0.8543,-0.8403,-0.8523,-0.8522,-0.8521,-0.8521,-0.852,-0.8306,-0.8336,-0.8352,-0.8383,-0.8397,-0.8415,-0.8444,-0.8448,-0.8476,-0.8508,-0.8501,-0.854,-0.8557,-0.8593,-0.8605,-0.8636,-0.862,-0.8636,-0.864,-0.8645,-0.865,-0.8535,-0.8641,-0.8641,-0.864,-0.864,-0.864,0,-0.8416,-0.8425,-0.8454,-0.8482,-0.8506,-0.8488,-0.8508,-0.853,-0.8565,-0.8582,-0.8607,-0.8647,-0.8679,-0.8686,-0.8716,-0.8739,-0.8733,-0.8748,-0.8747,-0.875,-0.8663,-0.865,-0.8752,-0.8752,-0.8752,-0.8752,-0.8752,-0.8752,-0.8477,-0.8527,-0.8525,-0.8581,-0.8589,-0.8627,-0.8641,-0.8658,-0.8671,-0.8716,-0.8742,-0.8746,-0.8758,-0.8789,-0.8817,-0.8818,-0.8831,-0.8849,-0.8848,-0.8767,-0.8756,-0.8745,-0.8733,-0.8851,-0.8852,-0.8932,-0.8933,-0.8933]},{"header":{"parameterUnit":"m.s-1","parameterCategory":1,"la1":30.2991,"la2":30.254,"lo1":-89.0895,"lo2":-89.0444,"dy":0.0017,"dx":0.0017,"nx":28,"ny":28,"refTime":"2023-03-16T21:00:00:Z","depth":0,"parameterNumber":3,"parameterNumberName":"V-component_of_WINDS"},"data":[0,0,0,0,0,0,0,0,0,0,0,0,0,0,0,0,0,0,0,0,0,0,0,0,0,0,0,0,0,0,0,0,0,0,0,0,0,0,0,0,0,0,0,0,0,0,0,0,0,0,0,0,0,0,0,0,0,0,-8.5821,-8.5822,0,-8.5963,-8.5965,-8.5966,-8.5877,-8.5872,-8.5868,-8.5864,-8.6003,-8.601,-8.6018,0,0,0,0,0,0,0,0,0,0,0,0,0,-8.5465,-8.5472,-8.5821,-8.5823,-8.5824,-8.5963,-8.5965,-8.5967,-8.5877,-8.5872,-8.5867,-8.5862,-8.6,-8.6009,-8.6019,0,0,0,0,0,0,0,0,0,0,0,0,0,-8.5615,-8.5475,-8.582,-8.5797,-8.5796,-8.5962,-8.5965,-8.5967,-8.5878,-8.5872,-8.5866,-8.586,-8.5998,-8.6009,-8.602,-8.6215,0,0,-8.6055,-8.6059,0,0,0,0,0,0,0,0,-8.5606,-8.5628,-8.5798,-8.5799,-8.5798,-8.5896,-8.589,-8.605,-8.588,-8.5847,-8.5864,-8.5857,-8.5972,-8.5985,-8.6025,-8.6222,-8.6228,-8.6056,-8.6062,-8.6067,-8.6071,0,0,0,0,0,0,0,-8.5596,-8.5621,-8.5877,-8.5801,-8.5801,-8.5777,-8.5791,-8.592,-8.5943,-8.5849,-8.5843,-8.5862,-8.5971,-8.6015,-8.6028,-8.623,-8.6055,-8.6065,-8.6072,-8.6077,-8.6594,-8.6601,0,0,0,0,0,0,-8.5589,-8.5613,-8.5872,-8.5881,-8.5685,-8.5788,-8.5804,-8.5871,-8.5941,-8.5946,-8.5867,-8.5857,-8.5998,-8.6015,-8.6032,-8.6266,-8.6067,-8.6078,-8.6084,-8.6587,-8.6595,-8.6603,0,0,0,0,0,0,-8.5581,-8.5613,-8.5867,-8.5746,-8.5776,-8.5801,-8.5876,-8.5877,-8.5921,-8.5954,-8.5957,-8.5908,-8.5994,-8.6016,-8.6171,-8.627,-8.6083,-8.6093,-8.6579,-8.659,-8.6599,-8.6736,0,0,0,0,0,0,-8.5572,-8.5611,-8.5687,-8.5748,-8.5783,-8.6006,-8.5883,-8.5884,-8.5941,-8.593,-8.5994,-8.5998,-8.5991,-8.6155,-8.6182,-8.6282,-8.6102,-8.657,-8.6584,-8.6596,-8.6723,-8.675,-8.6773,0,0,0,0,0,-8.5559,-8.5718,-8.5691,-8.5723,-8.5879,-8.6011,-8.6031,-8.6021,-8.595,-8.6026,-8.6047,-8.5996,-8.6255,-8.6171,-8.6202,-8.6306,-8.6564,-8.658,-8.6595,-8.6711,-8.6744,-8.6772,0,0,0,0,0,0,-8.5665,-8.5725,-8.5696,-8.588,-8.5942,-8.5996,-8.6091,-8.6056,-8.6137,-8.6123,-8.6105,-8.612,-8.6282,-8.6309,-8.6215,-8.6499,-8.6398,-8.642,-8.6476,-8.6507,-8.6532,-8.6522,-8.6112,0,0,0,0,0,-8.571,-8.5815,-8.5861,-8.6018,-8.6051,-8.6067,-8.6123,-8.6111,-8.6173,-8.6197,-8.623,-8.629,-8.6385,-8.6447,-8.6536,-8.6726,-8.6738,-8.6813,-8.6838,-8.6858,-8.6878,-8.698,-8.7014,-8.6654,-8.6654,-8.6654,0,0,-8.5803,-8.5849,-8.5916,-8.6041,-8.6087,-8.6194,-8.6089,-8.6206,-8.6284,-8.6214,-8.6363,-8.639,-8.6455,-8.6629,-8.6706,-8.6656,-8.698,-8.6878,-8.6894,-8.6903,-8.6999,-8.7034,-8.7064,-8.6665,-8.6663,-8.6661,0,0,-8.6028,-8.6074,-8.6211,-8.626,-8.6332,-8.6341,-8.6374,-8.6435,-8.645,-8.66,-8.655,-8.6641,-8.6805,-8.6854,-8.69,-8.7145,-8.7101,-8.7174,-8.7305,-8.7405,-8.7433,-8.7458,-8.7545,-8.7577,-8.7194,-8.7194,-8.7194,0,-8.6135,-8.6296,-8.6285,-8.6407,-8.6463,-8.6407,-8.6544,-8.6591,-8.6688,-8.6727,-8.667,-8.6875,-8.6915,-8.7099,-8.7159,-8.7198,-8.7234,-8.7167,-8.7431,-8.7456,-8.7479,-8.7561,-8.7594,-8.7202,-8.7201,-8.7201,-8.72,0,-8.6423,-8.6536,-8.6637,-8.6735,-8.6802,-8.6931,-8.6938,-8.7007,-8.6988,-8.7003,-8.7155,-8.7202,-8.73,-8.7342,-8.7324,-8.7524,-8.7491,-8.7433,-8.733,-8.7522,-8.7599,-8.7631,-8.7215,-8.7212,-8.7209,-8.7207,0,0,-8.6718,-8.681,-8.6847,-8.6891,-8.6967,-8.7052,-8.7178,-8.7276,-8.7336,-8.7404,-8.7508,-8.7648,-8.7595,-8.7648,-8.7635,-8.7723,-8.7914,-8.7654,-8.7655,-8.77,-8.8136,-8.818,-8.8217,-8.7885,-8.7891,-8.7896,-8.8131,0,-8.6948,-8.7171,-8.7165,-8.7371,-8.7474,-8.7423,-8.7532,-8.759,-8.7607,-8.7695,-8.7712,-8.7813,-8.7735,-8.7767,-8.7851,-8.7873,-8.8001,-8.7855,-8.798,-8.7985,-8.7966,-8.8257,-8.8304,-8.8523,-8.8161,-8.8166,-8.817,0,-8.7246,-8.7328,-8.7545,-8.7607,-8.765,-8.7749,-8.7838,-8.7924,-8.7987,-8.7993,-8.8053,-8.8026,-8.8151,-8.8046,-8.8218,-8.8119,-8.8169,-8.8188,-8.8196,-8.8207,-8.8089,-8.8276,-8.8593,-8.8626,-8.8217,-8.8214,-8.821,0,-8.744,-8.7603,-8.7755,-8.7794,-8.7869,-8.794,-8.7974,-8.8032,-8.8091,-8.8168,-8.8206,-8.8296,-8.8346,-8.8415,-8.8412,-8.8336,-8.8586,-8.848,-8.8594,-8.8594,-8.8648,-8.8645,-8.8978,-8.8681,-8.8681,-8.868,-8.868,0,-8.7697,-8.7832,-8.7843,-8.7937,-8.8086,-8.8077,-8.8224,-8.825,-8.8302,-8.8398,-8.8358,-8.8448,-8.8439,-8.853,-8.8528,-8.8671,-8.8693,-8.87,-8.8698,-8.8704,-8.8703,-8.8737,-8.8721,-8.8689,-8.8687,-8.8685,-8.8684,0,-8.7939,-8.7952,-8.8114,-8.8173,-8.8191,-8.8298,-8.8347,-8.8435,-8.8448,-8.857,-8.8598,-8.8619,-8.8724,-8.8728,-8.8848,-8.8846,-8.902,-8.9001,-8.9,-8.8996,-8.9109,-8.9098,-8.9475,-8.9524,-8.9196,-8.9199,-8.9201,0,-8.8102,-8.8206,-8.8276,-8.8339,-8.8378,-8.848,-8.8541,-8.8535,-8.86,-8.8681,-8.8758,-8.8859,-8.894,-8.9109,-8.9134,-8.9225,-8.9207,-8.9333,-8.922,-8.9223,-8.9209,-8.9203,-8.9213,-8.9355,-8.9358,-8.9361,-8.9364,0,-8.8391,-8.8393,-8.8484,-8.8579,-8.8654,-8.8727,-8.8794,-8.8847,-8.8849,-8.8924,-8.9032,-8.9095,-8.9218,-8.9319,-8.9408,-8.944,-8.9402,-8.9399,-8.943,-8.9437,-8.9432,-8.9437,-8.906,-8.939,-8.9388,-8.9386,-8.9384,-8.9383,-8.8599,-8.8688,-8.8753,-8.8856,-8.8907,-8.8971,-8.9057,-8.9083,-8.9174,-8.9275,-8.9266,-8.9385,-8.9445,-8.9561,-8.9601,-8.9692,-8.9649,-8.9694,-8.9705,-8.9716,-8.9729,-8.9418,-8.9708,-8.9708,-8.9707,-8.9706,-8.9706,0,-8.8885,-8.8925,-8.902,-8.9118,-8.9199,-8.9159,-8.9232,-8.9301,-8.9408,-8.9468,-8.955,-8.9673,-8.9771,-8.9804,-8.9898,-8.9965,-8.995,-8.999,-8.9985,-8.9993,-8.9762,-8.9726,-9.0001,-9.0001,-9.0001,-9.0001,-9.0,-9.0,-8.9044,-8.9194,-8.9204,-8.9378,-8.9415,-8.9535,-8.958,-8.9638,-8.9687,-8.9828,-8.991,-8.9931,-8.998,-9.0078,-9.0165,-9.0172,-9.0208,-9.0255,-9.0255,-9.0039,-9.0009,-8.9981,-8.9947,-9.0263,-9.0264,-9.0478,-9.048,-9.0482]}]]